Simultaneous Nadir Overpasses (SNOs) Predictions

Prediction of SNOs between GOES-14 and NOAA-20 Satellite Orbit:

Table of predicted SNOs for the next 14.0 days since TLE Epoch: 9/6/2019
Index Date Time (GOES-14) GOES-14 Lat,Lon NOAA-20 Lat,Lon Distance(km) Time Diff (sec)
1 09/07/2019 08:04:25 0.36,-104.22 -0.53,-100.36 440.41 80
2 09/08/2019 20:26:22 -0.35,-104.33 -0.65,-105.67 152.63 80
3 09/09/2019 20:10:18 -0.35,-104.33 0.35,-101.14 363.83 80
4 09/11/2019 08:32:06 0.34,-104.23 0.82,-106.41 248.62 80
5 09/12/2019 08:10:42 0.35,-104.21 -0.18,-101.88 266.31 80
6 09/13/2019 20:32:39 -0.34,-104.30 -0.99,-107.19 329.33 80
7 09/14/2019 20:16:35 -0.34,-104.31 0.01,-102.66 187.59 80
8 09/16/2019 08:38:23 0.33,-104.23 1.17,-107.93 421.45 80
9 09/17/2019 08:16:59 0.34,-104.22 0.17,-103.40 93.70 80
10 09/19/2019 20:22:51 -0.33,-104.29 -0.33,-104.18 11.98 80




NCC Satellite Simultaneous Nadir Overpasses (SNOs) Prediction Service
